ARIANE 42P DEB, 44507

Orbit data source: Space-Track

ARIANE 42P DEB, 44507 is space debris in LEO originally from a launch on Mon, 10 Aug 1992 UTC launched from the French Guiana (FRGUI). Debris objects in space refer to the collection of defunct objects orbiting the Earth. Examples of debris include non-operational satellites, rocket bodies, and fragments generated from explosions, collisions, or faulty payload assembly.

Loading next visibility...
Identifier
44507, 1992-052E
Orbit
LEO
Country
Flag of FRFR
Related business
Manufacturer
ArianeGroup
Mission
Spacecraft
Bus & Motor
Unknown
Mass
Unknown
Launch date (UTC)
1992-08-10 (33 years ago)
Launch vehicle
Unknown
Launch site
French Guiana (FRGUI)
Object type
Payload
Rocket body
Debris
Shape & HBR
Unknown shape, 0.1 m
Radar Cross Section
Small (<0.1 m²)

Expand to show TLE details & history
Last TLE update: 7 hours ago

TLE from 7 hours ago
0 ARIANE 42P DEB
1 44507U 92052E   25354.79281162  .00004798  00000-0  18080-1 0  9999
2 44507  66.0105 247.4896 0152739  15.5804 344.9840 12.88303286297900
Epoch: 2025-12-20T19:01Z
TLE epoch observation values (Epoch: 2025-12-20T19:01:38.923Z)
Latitude
-0.00006°
Longitude
-127.53713°
Altitude
1,196.9 km
Speed
7.309 km/s
True Right ascension
16h 29m 57s
True Declination
0° 00' 00"
Sunlit
Object was in daylight at epoch
Visualization orbit readout
Latitude
Unknown
Longitude
Unknown
Altitude
Unknown
Speed
Unknown
Apparent Right ascension
Unknown
Apparent Declination
Unknown
Sunlit
N/A
Visualization observer readout
Local Sidereal Time
00:39:25
Azimuth
Unknown
Elevation
Unknown
Doppler factor
Unknown
Orbital elements
Apogee altitude
1,424.205 km
Perigee altitude
1,189.446 km
Semi-major axis
7,684.962 km
Eccentricity
0.01527
Inclination
66.0105°
RAAN
247.4896°
Arg. of periapsis
15.5804°
True anomaly
344.52202°
Mean anomaly
344.984°
Eccentric anomaly
344.75387°
Mean motion
3.22167 °/min
Orbital period
111.74 mins
BSTAR
0.01808
Loading maneuver chart data...
Computing Atmospheric mass density...
Loading historical data...
Loading historical data...
Loading historical data...
Loading historical data...
Loading historical data...
Loading historical data...
Loading historical data...

Documentation

Showing up to 5 results
|